FW6883 Weather Reports


Display with metric or nautical units.
time (UTC)temp
F
wind
direction
speed
MPH
gust
MPH
rain 1hr
in
rain 24hr
in
rain mn
in
humidity
%
barometer
mb
20260507193059 64 96 4.0 10.0 0.00 0.00 0.00 32 1009.4
20260507191553 64 86 5.0 14.0 0.00 0.00 0.00 33 1009.6
20260507190056 64 92 4.0 11.0 0.00 0.00 0.00 30 1009.6
20260507184550 63 79 5.0 11.0 0.00 0.00 0.00 30 1009.8
20260507183045 64 90 4.0 11.0 0.00 0.00 0.00 30 1010.3
20260507181543 63 91 4.0 10.0 0.00 0.00 0.00 31 1010.2
20260507180042 63 92 1.0 8.0 0.00 0.00 0.00 28 1010.4
20260507174544 63 112 4.0 8.0 0.00 0.00 0.00 27 1010.5
20260507173107 63 68 2.0 7.0 0.00 0.00 0.00 27 1010.5
20260507171539 63 98 2.0 8.0 0.00 0.00 0.00 28 1010.3
20260507170037 62 108 2.0 6.0 0.00 0.00 0.00 28 1010.3
20260507164533 63 69 2.0 6.0 0.00 0.00 0.00 29 1010.5
20260507163028 63 77 0.0 7.0 0.00 0.00 0.00 31 1010.5
20260507161523 64 39 0.0 6.0 0.00 0.00 0.00 30 1010.6
20260507160019 63 269 1.0 4.0 0.00 0.00 0.00 25 1010.6
20260507154515 63 351 2.0 6.0 0.00 0.00 0.00 27 1010.6
20260507153013 62 91 0.0 3.0 0.00 0.00 0.00 28 1011.0
20260507151509 61 104 3.0 5.0 0.00 0.00 0.00 28 1010.9
20260507150006 60 102 1.0 4.0 0.00 0.00 0.00 28 1010.9
20260507144502 60 140 0.0 3.0 0.00 0.00 0.00 31 1011.1
20260507143104 59 102 3.0 7.0 0.00 0.00 0.00 27 1011.0
20260507141602 57 139 1.0 3.0 0.00 0.00 0.00 30 1010.8
20260507140054 57 212 3.0 5.0 0.00 0.00 0.00 29 1011.0
20260507134554 57 181 1.0 7.0 0.00 0.00 0.00 30 1011.0
20260507133129 56 155 0.0 3.0 0.00 0.00 0.00 31 1010.9
20260507131548 56 157 1.0 6.0 0.00 0.00 0.00 30 1010.7
20260507130057 56 191 2.0 5.0 0.00 0.00 0.00 29 1010.8
20260507124547 56 131 1.0 6.0 0.00 0.00 0.00 29 1010.8
20260507123041 56 193 1.0 6.0 0.00 0.00 0.00 31 1010.8
20260507121540 56 194 0.0 6.0 0.00 0.00 0.00 30 1010.9
20260507120036 57 212 2.0 8.0 0.00 0.00 0.00 30 1011.0
20260507114532 56 212 0.0 4.0 0.00 0.00 0.00 30 1011.1
20260507113033 56 169 0.0 5.0 0.00 0.00 0.00 29 1011.4
20260507111525 57 227 2.0 8.0 0.00 0.00 0.00 28 1011.5
20260507110022 57 173 1.0 6.0 0.00 0.00 0.00 28 1011.7
20260507104520 57 144 0.0 3.0 0.00 0.00 0.00 28 1011.5
20260507103018 57 210 2.0 9.0 0.00 0.00 0.00 29 1011.5
20260507101514 56 236 1.0 5.0 0.00 0.00 0.00 31 1011.9
20260507100015 56 211 2.0 7.0 0.00 0.00 0.00 30 1012.2
20260507094508 56 213 1.0 6.0 0.00 0.00 0.00 31 1012.0
20260507093005 57 261 3.0 10.0 0.00 0.00 0.00 30 1012.1
20260507091503 56 260 2.0 8.0 0.00 0.00 0.00 31 1012.3
20260507090105 56 210 0.0 8.0 0.00 0.00 0.00 32 1012.7
20260507084600 56 230 1.0 4.0 0.00 0.00 0.00 32 1012.8
20260507083055 56 250 1.0 8.0 0.00 0.00 0.00 33 1012.8
20260507081554 55 248 0.0 4.0 0.00 0.00 0.00 34 1012.8
20260507080053 56 288 0.0 4.0 0.00 0.00 0.00 32 1012.8
20260507074551 54 150 1.0 4.0 0.00 0.00 0.00 41 1013.0
20260507073048 54 132 1.0 5.0 0.00 0.00 0.00 44 1013.2
20260507071540 56 170 1.0 5.0 0.00 0.00 0.00 33 1013.2
20260507070045 57 203 2.0 8.0 0.00 0.00 0.00 32 1013.3
20260507064538 56 251 1.0 12.0 0.00 0.00 0.00 32 1013.4
20260507063035 56 191 1.0 5.0 0.00 0.00 0.00 33 1013.5
20260507061529 56 197 2.0 6.0 0.00 0.00 0.00 33 1013.7
20260507060027 55 170 0.0 8.0 0.00 0.00 0.00 34 1013.6
20260507054523 53 228 1.0 5.0 0.00 0.00 0.00 41 1013.6
20260507053019 52 127 1.0 7.0 0.00 0.00 0.00 51 1013.6
20260507051517 52 111 2.0 9.0 0.00 0.00 0.00 53 1013.7
20260507050025 51 108 3.0 5.0 0.00 0.00 0.00 55 1014.0
20260507044513 51 111 1.0 3.0 0.00 0.00 0.00 56 1013.9
20260507043011 52 105 3.0 5.0 0.00 0.00 0.00 53 1013.7
20260507041510 52 105 2.0 5.0 0.00 0.00 0.00 52 1013.5
20260507040008 52 115 1.0 4.0 0.00 0.00 0.00 54 1013.5
20260507034505 53 107 2.0 5.0 0.00 0.00 0.00 53 1013.6
20260507033004 53 110 0.0 3.0 0.00 0.00 0.00 53 1013.4
20260507031502 53 148 0.0 2.0 0.00 0.00 0.00 51 1013.2
20260507030111 51 149 0.0 3.0 0.00 0.00 0.00 60 1013.1
20260507024610 50 205 0.0 3.0 0.00 0.00 0.00 63 1013.2
20260507023155 50 143 1.0 4.0 0.00 0.00 0.00 71 1013.3
20260507021557 51 98 2.0 7.0 0.00 0.00 0.00 68 1013.1
20260507020058 52 100 2.0 5.0 0.00 0.00 0.00 66 1013.0
20260507014555 52 105 5.0 11.0 0.00 0.00 0.00 65 1012.8
20260507013044 53 77 4.0 11.0 0.00 0.00 0.00 62 1013.2
20260507011547 54 108 4.0 10.0 0.00 0.00 0.00 61 1013.1
20260507010044 55 97 4.0 11.0 0.00 0.00 0.00 59 1013.0
20260507004538 55 100 4.0 11.0 0.00 0.00 0.00 60 1013.0
20260507003036 55 103 5.0 11.0 0.00 0.00 0.00 59 1013.2
20260507001536 55 103 3.0 10.0 0.00 0.00 0.00 59 1013.3
20260507000035 56 70 5.0 10.0 0.00 0.00 0.00 60 1013.0
20260506234528 55 103 5.0 11.0 0.00 0.00 0.00 58 1013.0
20260506233025 55 65 7.0 12.0 0.00 0.00 0.00 58 1013.2
20260506231522 55 94 4.0 10.0 0.00 0.00 0.00 56 1013.6
20260506230021 55 72 5.0 12.0 0.00 0.00 0.00 58 1013.4
20260506224518 55 72 5.0 13.0 0.00 0.00 0.00 58 1013.3
20260506223018 55 96 5.0 11.0 0.00 0.00 0.00 58 1013.8
20260506221511 56 105 4.0 9.0 0.00 0.00 0.00 57 1013.9
20260506220008 56 28 3.0 9.0 0.00 0.00 0.00 61 1013.9
20260506214504 55 115 3.0 8.0 0.00 0.00 0.00 60 1014.0
20260506213001 54 70 5.0 10.0 0.00 0.00 0.00 62 1014.3
20260506211600 54 72 3.0 10.0 0.00 0.00 0.00 63 1014.4
20260506210058 54 100 3.0 8.0 0.00 0.00 0.00 63 1014.5
20260506204559 54 103 3.0 7.0 0.00 0.00 0.00 62 1014.7
20260506203056 53 101 2.0 6.0 0.00 0.00 0.00 63 1015.0
20260506201556 52 91 2.0 6.0 0.00 0.00 0.00 64 1015.0
20260506200051 53 117 3.0 7.0 0.00 0.00 0.00 62 1015.0
20260506194549 53 94 3.0 6.0 0.00 0.00 0.00 62 1015.4